{"data":{"norad_id":47568,"intl_designator":"2021-009W","name":"STARLINK-1967","alt_names":[],"object_type":"PAYLOAD","status":"ACTIVE","operator":null,"country":"US","launch_date":"2021-02-04","launch_site_code":"AFETR","launch_vehicle":null,"mission":null,"orbit_class":"UNKNOWN","rcs_meters":null,"size_class":null,"mass_kg":null,"dimensions":null,"purposes":["comms"],"wikipedia_slug":null,"has_3d_model":false,"image_url":null,"decayed_at":null,"tle_current":{"epoch":"2026-07-25T22:08:33.312192Z","epoch_age_seconds":4914065,"freshness":"OLD","line1":"1 47568U 21009W   26206.92260778  .05899936  12261-4  68224-3 0  9999","line2":"2 47568  53.0220  30.5430 0010339 277.3649  82.6221 16.35828844302895","mean_motion":16.35828844,"eccentricity":0.0010339,"inclination_deg":53.022,"raan_deg":30.543,"arg_perigee_deg":277.3649,"mean_anomaly_deg":82.6221,"bstar":0.00068224,"rev_number":30289,"period_min":88.028769347217,"perigee_km":170.14465226222,"apogee_km":183.6992031129,"semimajor_km":6555.0589276876,"source":"CELESTRAK","updated_at":"2026-07-26T09:00:43.961892Z"}}}